Location: St. Louis
(38.6270°N, 90.1994°W)
Time: 07:46:52
(UTC-06:00)

deb Explorer IX - Pass Details

Date: 06 December 2021
Orbit: 544 x 1082 km, 38.8° (Epoch: 19 January)

Event Time Altitude Azimuth Distance (km) Brightness Sun altitude
Rises 15:20:22 0° 268° (W) 2,705 ? 11.7°
Reaches altitude 10° 15:24:31 10° 227° (SW) 1,800 ? 11.1°
Maximum altitude 15:25:17 10° 216° (SW) 1,774 ? 11.0°
Drops below altitude 10° 15:26:04 10° 205° (SSW) 1,807 ? 10.9°
Sets 15:30:17 0° 164° (SSE) 2,754 ? 10.3°
